Flag for Indonesia Weather past 2 weeks in Manado, North Sulawesi, Indonesia

93 °F

Scattered clouds.

Feels Like: 96 °F
Forecast: 76 / 93 °F
Wind: 8 mph from North

Location: Menado / Dr. Sam Ratulangi

Current Time: Oct 10, 2015 at 2:12:05 PM

Latest Report: Oct 10, 2015 at 2:00 PM

Visibility: 6 mi

Pressure: 29.83 "Hg

Humidity: 41%

Dew point: 66 °F

Location of ManadoLocation

Historic Weather in Manado — Graph


Manado temperature yesterday

Maximum temperature yesterday: 99 °F (at 11:00 AM)
Minimum temperature yesterday: 72 °F (at 4:00 AM)
Average temperature yesterday: 83 °F

Past Weeks' High & Low Weather Summary

High100 °F (Sep 29, 11:30 AM)100% (Sep 29, 2:30 AM)29.98 "Hg (Sep 29, 2:30 AM)
Low64 °F (Sep 29, 2:30 AM)22% (Sep 29, 11:30 AM)29.74 "Hg (Sep 25, 2:00 PM)
Average83 °F61%29.87 "Hg
* Reported Sep 25 12:00 Noon — Oct 10 12:30 PM, Manado, Weather by CustomWeather, © 2015

Note: Actual official high and low records may vary slightly from our data, if they occured in-between our weather recording intervals... More about our weather records


Manado weather history for previous 24 hours

Time TempWeatherWind HumidityBarometerVisibility
12:30 PM
Sat, Oct 10
95 °FScattered clouds.7 mph39%29.86 "Hg6 mi
12:00 PM93 °FScattered clouds.7 mph39%29.86 "Hg6 mi
11:30 AM93 °FScattered clouds.5 mph41%29.86 "Hg6 mi
11:00 AM93 °FPassing clouds.5 mph39%29.89 "Hg6 mi
10:30 AM91 °FPassing clouds.9 mph41%29.92 "Hg6 mi
10:00 AM91 °FPassing clouds.10 mph41%29.92 "Hg6 mi
9:30 AM90 °FPassing clouds.13 mph43%29.92 "Hg6 mi
9:00 AM88 °FPassing clouds.16 mph46%29.92 "Hg6 mi
8:30 AM88 °FPassing clouds.15 mph46%29.92 "Hg6 mi
8:00 AM86 °FPassing clouds.7 mph49%29.92 "Hg6 mi
7:30 AM82 °FPassing clouds.2 mph62%29.92 "Hg6 mi
7:00 AM79 °FPassing clouds.3 mph65%29.92 "Hg6 mi
6:30 AM73 °FPassing clouds.2 mph78%29.92 "Hg6 mi
5:00 AM72 °FPassing clouds.1 mph78%29.89 "Hg6 mi
4:30 AM75 °FPassing clouds.2 mph69%29.86 "Hg5 mi
4:00 AM75 °FPassing clouds.2 mph69%29.86 "Hg5 mi
3:30 AM75 °FPassing clouds.2 mph74%29.86 "Hg5 mi
3:00 AM73 °FPassing clouds.2 mph74%29.86 "Hg5 mi
2:30 AM73 °FPassing clouds.2 mph74%29.86 "Hg5 mi
2:00 AM72 °FPassing clouds.2 mph78%29.86 "Hg5 mi
1:30 AM72 °FPassing clouds.No wind78%29.86 "Hg5 mi
1:00 AM73 °FPassing clouds.1 mph74%29.89 "Hg5 mi
12:30 AM73 °FPassing clouds.No wind78%29.89 "Hg5 mi
12:00 AM75 °FPassing clouds.2 mph74%29.89 "Hg5 mi
11:30 PM
Fri, Oct 9
73 °FPassing clouds.2 mph78%29.89 "Hg5 mi
10:30 PM75 °FPassing clouds.2 mph83%29.92 "Hg5 mi
10:00 PM75 °FPassing clouds.2 mph83%29.92 "Hg5 mi
9:30 PM75 °FPassing clouds.2 mph83%29.92 "Hg5 mi
9:00 PM77 °FPassing clouds.2 mph79%29.92 "Hg5 mi
8:30 PM79 °FPassing clouds.5 mph74%29.89 "Hg5 mi
8:00 PM79 °FPassing clouds.6 mph74%29.89 "Hg5 mi
7:30 PM81 °FPassing clouds.5 mph70%29.89 "Hg5 mi
7:00 PM81 °FPassing clouds.5 mph70%29.89 "Hg5 mi
6:30 PM81 °FPassing clouds.5 mph70%29.86 "Hg5 mi
6:00 PM81 °FPassing clouds.8 mph74%29.86 "Hg6 mi
5:30 PM82 °FPassing clouds.9 mph66%29.83 "Hg6 mi
5:00 PM84 °FScattered clouds.7 mph66%29.83 "Hg6 mi
4:30 PM84 °FScattered clouds.6 mph66%29.83 "Hg6 mi
4:00 PM86 °FScattered clouds.7 mph59%29.80 "Hg6 mi
3:30 PM88 °FScattered clouds.8 mph59%29.80 "Hg6 mi
3:00 PM90 °FScattered clouds.6 mph52%29.80 "Hg6 mi
2:30 PM95 °FPassing clouds.3 mph47%29.80 "Hg6 mi
2:00 PM95 °FPassing clouds.8 mph41%29.80 "Hg6 mi
Weather by CustomWeather, © 2015

See weather overviewHow to use our weather pages